Weather History for CXIB - November, 2012

Change the Weather History Date:

Thursday, November 22, 2012

  Actual Average Record
Temperature  
Mean Temperature 38 °F -  
Max Temperature 49 °F - - ()
Min Temperature 28 °F - - ()
Degree Days  
Heating Degree Days 26    
Moisture  
Dew Point 29 °F    
Average Humidity 74    
Maximum Humidity 89    
Minimum Humidity 40    
Precipitation  
Precipitation 0.00 in - - ()
Sea Level Pressure  
Sea Level Pressure 30.21 in    
Wind  
Wind Speed 3 mph ()    
Max Wind Speed 7 mph    
Max Gust Speed 21 mph    
T = Trace of Precipitation, MM = Missing Value Source: Averaged Metar Reports

Daily Weather History Graph

Daily Weather History Graph

Search for Another Location

Airport or City:

Trip Planner

Search our weather history database for the weather conditions in past years. The results will help you decide how hot, cold, wet, or windy it might be!

Date:

Astronomy

Nov. 22, 2012 Rise Set
Actual Time 7:14 AM AST 4:20 PM AST
Civil Twilight 6:40 AM AST 4:54 PM AST
Nautical Twilight 6:03 AM AST 5:31 PM AST
Astronomical Twilight 5:27 AM AST 6:07 PM AST
Moon 1:21 PM AST (11/22) 1:10 AM AST (11/22)
Length of Visible Light 10h 13m
Length of Day
9h 06m
Waxing Gibbous, 71% of the Moon is Illuminated
Nov 22
Waxing Gibbous
Nov 28
Full
Dec 6
Last Quarter
Dec 13
New
Dec 20
First Quarter

Hourly Weather History & Observations

Time (AST) Temp. Windchill Dew Point Humidity Pressure Visibility Wind Dir Wind Speed Gust Speed Precip Events Conditions
12:00 AM 31.5 °F 28.1 °F 28.0 °F 87% 30.28 in - SW 3.5 mph - N/A   Unknown
1:00 AM 31.5 °F 28.1 °F 27.5 °F 85% 30.27 in - SW 3.5 mph - N/A   Unknown
2:00 AM 30 °F - 27 °F 83% 30.27 in - SW 4.6 mph - -  
2:00 AM 30.4 °F 25.6 °F 26.8 °F 86% 30.27 in - SW 4.6 mph - N/A   Unknown
3:00 AM 30.9 °F - 26.4 °F 83% 30.27 in - SSW 2.3 mph - N/A   Unknown
4:00 AM 32.9 °F 28.5 °F 25.9 °F 75% 30.26 in - WSW 4.6 mph - N/A   Unknown
5:00 AM 28.8 °F - 25.3 °F 87% 30.26 in - SSW 1.2 mph - N/A   Unknown
6:00 AM 29.5 °F - 25.3 °F 85% 30.26 in - SW 2.3 mph - N/A   Unknown
7:00 AM 29.5 °F - 25.7 °F 86% 30.26 in - SW 2.3 mph - N/A   Unknown
8:00 AM 31 °F - 26 °F 76% 30.27 in - South 3.5 mph - -  
8:00 AM 30.9 °F 27.5 °F 26.4 °F 83% 30.27 in - South 3.5 mph - N/A   Unknown
9:00 AM 37.2 °F 34.7 °F 28.9 °F 72% 30.26 in - SSW 3.5 mph - N/A   Unknown
10:00 AM 41.5 °F 38.6 °F 28.9 °F 61% 30.25 in - SW 4.6 mph - N/A   Unknown
11:00 AM 46.0 °F 43.9 °F 28.9 °F 51% 30.22 in - SSW 4.6 mph - N/A   Unknown
12:00 PM 47.3 °F - 32.0 °F 55% 30.20 in - SW 4.6 mph - N/A   Unknown
1:00 PM 48.2 °F - 34.0 °F 58% 30.17 in - SSW 5.8 mph - N/A   Unknown
2:00 PM 49 °F - 32 °F 40% 30.16 in - SW 3.5 mph - -  
2:00 PM 49.1 °F - 31.6 °F 51% 30.16 in - SW 3.5 mph - N/A   Unknown
3:00 PM 47.1 °F - 33.6 °F 59% 30.16 in - SSE 5.8 mph - N/A   Unknown
4:00 PM 42.3 °F - 33.3 °F 70% 30.16 in - WSW 2.3 mph - N/A   Unknown
5:00 PM 37.0 °F 33.3 °F 31.8 °F 81% 30.16 in - WSW 4.6 mph - N/A   Unknown
6:00 PM 36.0 °F - 31.6 °F 84% 30.16 in - SSW 2.3 mph - N/A   Unknown
7:00 PM 33.8 °F - 30.0 °F 86% 30.16 in - SE 2.3 mph - N/A   Unknown
8:00 PM 39 °F - 31 °F 65% 30.15 in - SSW 6.9 mph - -  
8:00 PM 38.7 °F 33.6 °F 31.3 °F 75% 30.15 in - SSW 6.9 mph 20.7 mph N/A   Unknown
10:00 PM 35.2 °F - 30.7 °F 84% 30.12 in - North 1.2 mph - N/A   Unknown
11:00 PM 33.6 °F - 30.7 °F 89% 30.10 in - NW 2.3 mph - N/A   Unknown